Location: Chin
(49.7667°N, 112.4500°W)
Time: 11:13:54
(UTC+00:00)

Envisat - Pass Details

Date: 05 December 2021
Orbit: 764 x 766 km, 98.2° (Epoch: 23 January)

Event Time Altitude Azimuth Distance (km) Brightness Sun altitude
Rises 01:11:34 0° 220° (SW) 3,224 7.2 -15.5°
Reaches altitude 10° 01:15:18 10° 249° (WSW) 2,305 6.8 -16.1°
Maximum altitude 01:17:29 13° 275° (W) 2,126 6.4 -16.5°
Drops below altitude 10° 01:19:40 10° 301° (WNW) 2,312 6.1 -16.8°
Sets 01:23:28 0° 329° (NNW) 3,246 6.5 -17.4°
